User: anonymous   Login
Location: Unspecified
(0.0000°N, 0.0000°E)
Time: 14:34:38
(UTC+00:00)
Language:

ASTRA 1KR - Orbit

View from above orbital plane
View from above orbital plane
View from above satellite
View from above satellite

Ground track
Ground track

The orbit data is extracted from the following two-line orbital elements,

1 29055U 06012A   16345.11015730  .00000123  00000-0  00000+0 0  9992
2 29055   0.0219 300.9322 0005443 308.4382 248.7430  1.00270886 38896
Epoch (UTC): 10 December 2016 02:38:37
Eccentricity: 0.0005443
inclination: 0.0219°
perigee height: 35763 km
apogee height: 35809 km
right ascension of ascending node: 300.9322°
argument of perigee: 308.4382°
revolutions per day: 1.00270886
mean anomaly at epoch: 248.7430°
orbit number at epoch: 3889

The dashed part of the orbit path shows where the satellite is in the earth's shadow,  

DLR